Location: Newark
(45.2500°N, 7.5833°E)
Time: 14:36:46
(UTC+00:00)

Vanguard 3 - Pass Details

Date: 04 February 2020
Orbit: 508 x 3263 km, 33.3° (Epoch: 28 February)

Event Time Altitude Azimuth Distance (km) Brightness Sun altitude
Rises 14:25:16 0° 236° (SW) 5,714 12.9 18.4°
Reaches altitude 10° 14:28:41 10° 231° (SW) 5,023 13.4 18.0°
Maximum altitude 14:43:43 51° 162° (SSE) 3,636 10.9 16.2°
Drops below altitude 10° 15:02:20 10° 95° (E) 6,119 11.2 13.8°
Sets 15:07:02 0° 91° (E) 6,995 11.5 13.2°
